Language: 


Des rapports , des résumés tant et plus, au choix de chacun....


Données statistiques de la station
Quotidien Rapport Février 17, 2017 Unités:  Anglais    Métrique   les deux
« Précédent Jour
Suivant Jour »
Quotidien Hebdomadaire Mensuel Annuel Actuel
  Haut: Bas: Moyen:
Température: 55.6 °F 32 °F 46.8 °F
Pt de rosée: 50 °F 40.3 °F 44.6 °F
Humidité: 98 % 0 % 92 %
Vitesse du vent: 10.5 mph 0 mph 3.6 mph
Rafales: 13.2 mph - -
Vent:- - WSW
Pression: 30.4 in 0 in -
Précipitation: 0 in    
Historical Graphs
 
 
Données statistiques pour Février 17, 2017
Heure Température Point de rosée Pression Vent Vitesse du vent Refales Humidité Pluie (taux horaire)
00:03 43.3 °F 42.4 °F 30.3 in West 2.9 mph 4.9 mph 97 % 0 in
00:08 43.2 °F 42.3 °F 30.3 in West 4 mph 5.6 mph 97 % 0 in
00:13 43.2 °F 42.3 °F 30.3 in WSW 5.4 mph 5.6 mph 97 % 0 in
00:18 42.8 °F 42.1 °F 30.3 in WSW 4.7 mph 5.4 mph 97 % 0 in
00:23 42.6 °F 41.7 °F 30.3 in West 4.9 mph 5.8 mph 97 % 0 in
00:28 42.6 °F 41.7 °F 30.3 in WSW 4.9 mph 5.8 mph 97 % 0 in
00:33 42.6 °F 42.1 °F 30.3 in WSW 4.3 mph 6.3 mph 98 % 0 in
00:38 42.6 °F 42.1 °F 30.3 in WSW 4 mph 6.3 mph 98 % 0 in
00:44 42.4 °F 41.9 °F 30.3 in WSW 5.4 mph 5.8 mph 98 % 0 in
00:49 42.6 °F 42.1 °F 30.3 in WSW 5.8 mph 6.5 mph 98 % 0 in
00:54 42.6 °F 42.1 °F 30.3 in West 5.8 mph 6.5 mph 98 % 0 in
00:59 42.6 °F 42.1 °F 30.3 in WSW 5.4 mph 6.5 mph 98 % 0 in
01:04 42.4 °F 41.9 °F 30.3 in West 5.4 mph 6.3 mph 98 % 0 in
01:09 42.4 °F 41.9 °F 30.3 in West 5.6 mph 6.3 mph 98 % 0 in
01:14 42.6 °F 42.1 °F 30.3 in West 6.5 mph 6.5 mph 98 % 0 in
01:19 42.6 °F 42.1 °F 30.3 in WSW 5.6 mph 6.5 mph 98 % 0 in
01:24 42.8 °F 42.3 °F 30.3 in West 6 mph 6.5 mph 98 % 0 in
01:29 42.8 °F 42.3 °F 30.3 in West 5.8 mph 6.5 mph 98 % 0 in
01:34 42.8 °F 42.3 °F 30.3 in West 6.3 mph 6.5 mph 98 % 0 in
01:39 42.8 °F 42.3 °F 30.3 in West 5.8 mph 6.7 mph 98 % 0 in
01:44 42.8 °F 42.3 °F 30.3 in West 5.8 mph 6.7 mph 98 % 0 in
01:49 42.8 °F 42.3 °F 30.3 in West 6.3 mph 6.5 mph 98 % 0 in
01:54 42.8 °F 42.3 °F 30.3 in WSW 6.3 mph 7.4 mph 98 % 0 in
01:59 42.8 °F 42.3 °F 30.3 in West 6.5 mph 7.4 mph 98 % 0 in
02:04 43 °F 42.4 °F 30.3 in West 4.9 mph 6.5 mph 98 % 0 in
02:09 42.8 °F 42.3 °F 30.3 in West 6.5 mph 6.5 mph 98 % 0 in
02:14 42.8 °F 42.3 °F 30.3 in West 5.6 mph 6.5 mph 98 % 0 in
02:19 43 °F 42.4 °F 30.3 in West 6 mph 6.5 mph 98 % 0 in
02:24 43.2 °F 42.6 °F 30.3 in West 5.8 mph 6.5 mph 98 % 0 in
02:29 43 °F 42.4 °F 30.3 in West 4.9 mph 7.2 mph 98 % 0 in
02:34 43 °F 42.4 °F 30.3 in WSW 6.7 mph 7.2 mph 98 % 0 in
02:39 42.8 °F 42.3 °F 30.3 in West 6.3 mph 7.8 mph 98 % 0 in
02:44 42.8 °F 42.3 °F 30.3 in West 6.3 mph 7.8 mph 98 % 0 in
02:49 42.8 °F 42.3 °F 30.3 in WSW 5.4 mph 7.2 mph 98 % 0 in
02:54 42.6 °F 42.1 °F 30.3 in WSW 4.3 mph 7.2 mph 98 % 0 in
03:00 42.3 °F 41.7 °F 30.3 in West 5.8 mph 6.5 mph 98 % 0 in
03:06 32 °F 41.7 °F 0 in West 5.8 mph 6.5 mph 0 % 0 in
03:11 42.3 °F 41.7 °F 30.3 in West 5.4 mph 5.8 mph 98 % 0 in
03:16 42.1 °F 41.5 °F 30.3 in WSW 4.3 mph 5.8 mph 98 % 0 in
03:21 42.1 °F 41.5 °F 30.3 in West 3.8 mph 5.4 mph 98 % 0 in
03:26 42.3 °F 41.7 °F 30.3 in West 4.5 mph 4.9 mph 98 % 0 in
03:31 41.9 °F 41.4 °F 30.3 in WSW 4.3 mph 4.7 mph 98 % 0 in
03:36 41.5 °F 41 °F 30.3 in WSW 4 mph 4.5 mph 98 % 0 in
03:41 41.5 °F 41 °F 30.3 in WSW 4 mph 4.3 mph 98 % 0 in
03:46 41.5 °F 41 °F 30.3 in WSW 4.9 mph 4.9 mph 98 % 0 in
03:51 41.5 °F 41 °F 30.3 in WSW 5.4 mph 6.3 mph 98 % 0 in
03:56 42.1 °F 41.5 °F 30.3 in WSW 6 mph 6.3 mph 98 % 0 in
04:01 42.3 °F 41.7 °F 30.3 in WSW 6 mph 6.5 mph 98 % 0 in
04:06 42.4 °F 41.9 °F 30.3 in WSW 6.3 mph 7.4 mph 98 % 0 in
04:11 42.6 °F 42.1 °F 30.3 in WSW 6 mph 7.4 mph 98 % 0 in
04:16 42.8 °F 42.3 °F 30.3 in WSW 5.4 mph 7.2 mph 98 % 0 in
04:21 43 °F 42.4 °F 30.3 in West 6.5 mph 7.4 mph 98 % 0 in
04:26 43.2 °F 42.6 °F 30.3 in WSW 6.7 mph 7.6 mph 98 % 0 in
04:31 43.3 °F 42.8 °F 30.3 in West 6.3 mph 7.6 mph 98 % 0 in
04:36 43.5 °F 43 °F 30.3 in WSW 7.6 mph 8.7 mph 98 % 0 in
04:41 43.5 °F 43.2 °F 30.3 in WSW 3.8 mph 8.7 mph 98 % 0 in
04:46 43.5 °F 43.2 °F 30.3 in West 5.4 mph 7.6 mph 98 % 0 in
04:51 43.5 °F 43.2 °F 30.3 in WSW 5.6 mph 6 mph 98 % 0 in
04:56 43.5 °F 43.2 °F 30.3 in WSW 5.4 mph 5.8 mph 98 % 0 in
05:02 43.9 °F 43.3 °F 30.3 in WSW 6 mph 6.3 mph 98 % 0 in
05:07 43.9 °F 43.3 °F 30.3 in WSW 6 mph 6.3 mph 98 % 0 in
05:12 43.9 °F 43.3 °F 30.3 in WSW 5.4 mph 6.3 mph 98 % 0 in
05:17 43.9 °F 43.3 °F 30.3 in WSW 3.8 mph 6.3 mph 98 % 0 in
05:22 44.1 °F 43.5 °F 30.3 in WSW 6 mph 6.5 mph 98 % 0 in
05:27 44.1 °F 43.5 °F 30.3 in West 4.3 mph 6.5 mph 98 % 0 in
05:32 44.2 °F 43.5 °F 30.3 in West 5.4 mph 6 mph 98 % 0 in
05:37 44.2 °F 43.9 °F 30.3 in WSW 4.9 mph 6 mph 98 % 0 in
05:42 44.2 °F 43.9 °F 30.3 in West 4.9 mph 6 mph 98 % 0 in
05:47 44.4 °F 44.1 °F 30.3 in West 4 mph 6 mph 98 % 0 in
05:52 44.4 °F 44.1 °F 30.3 in WSW 3.6 mph 5.6 mph 98 % 0 in
05:57 44.4 °F 44.1 °F 30.3 in WSW 3.4 mph 5.6 mph 98 % 0 in
06:02 44.2 °F 43.9 °F 30.3 in WSW 4 mph 4.7 mph 98 % 0 in
06:07 44.2 °F 43.9 °F 30.3 in WSW 4 mph 4.9 mph 98 % 0 in
06:12 44.4 °F 44.1 °F 30.3 in WSW 5.4 mph 5.6 mph 98 % 0 in
06:17 44.4 °F 44.1 °F 30.3 in WSW 5.4 mph 6 mph 98 % 0 in
06:22 44.4 °F 44.1 °F 30.3 in West 4.9 mph 6 mph 98 % 0 in
06:27 44.2 °F 43.9 °F 30.3 in WSW 3.6 mph 5.8 mph 98 % 0 in
06:32 44.2 °F 43.9 °F 30.3 in West 3.4 mph 5.6 mph 98 % 0 in
06:37 44.2 °F 43.5 °F 30.3 in West 3.6 mph 4.3 mph 98 % 0 in
06:42 44.1 °F 43.5 °F 30.3 in WSW 3.1 mph 4 mph 98 % 0 in
06:47 43.5 °F 43 °F 30.3 in WSW 3.1 mph 4 mph 98 % 0 in
06:52 43 °F 42.4 °F 30.3 in WSW 2.9 mph 3.6 mph 98 % 0 in
06:57 42.6 °F 42.1 °F 30.3 in WSW 2.9 mph 3.6 mph 98 % 0 in
07:02 42.3 °F 41.7 °F 30.3 in WSW 2.7 mph 3.6 mph 98 % 0 in
07:07 42.3 °F 41.7 °F 30.3 in West 3.8 mph 3.8 mph 98 % 0 in
07:12 42.3 °F 41.7 °F 30.3 in West 3.8 mph 4.7 mph 98 % 0 in
07:17 42.3 °F 41.7 °F 30.3 in West 3.8 mph 4.7 mph 98 % 0 in
07:22 42.4 °F 41.9 °F 30.3 in West 3.8 mph 4.3 mph 98 % 0 in
07:27 42.3 °F 41.7 °F 30.3 in West 4.9 mph 4.9 mph 98 % 0 in
07:32 42.1 °F 41.5 °F 30.3 in West 3.6 mph 5.4 mph 98 % 0 in
07:37 41.7 °F 41.2 °F 30.3 in West 3.6 mph 5.4 mph 98 % 0 in
07:42 41.2 °F 40.6 °F 30.3 in WSW 2.9 mph 4 mph 98 % 0 in
07:47 41 °F 40.5 °F 30.3 in WSW 3.4 mph 3.6 mph 98 % 0 in
07:52 40.8 °F 40.3 °F 30.3 in WSW 2.9 mph 3.6 mph 98 % 0 in
07:57 40.8 °F 40.3 °F 30.3 in WSW 3.1 mph 3.6 mph 98 % 0 in
08:02 41 °F 40.5 °F 30.3 in West 3.8 mph 4.3 mph 98 % 0 in
08:07 41.5 °F 41 °F 30.3 in West 4.9 mph 5.8 mph 98 % 0 in
08:12 41.9 °F 41.4 °F 30.3 in West 4 mph 5.8 mph 98 % 0 in
08:17 42.1 °F 41.5 °F 30.3 in West 4 mph 4.9 mph 98 % 0 in
08:22 42.3 °F 41.7 °F 30.3 in West 4 mph 6 mph 98 % 0 in
08:27 42.1 °F 41.5 °F 30.3 in West 5.4 mph 6 mph 98 % 0 in
08:32 42.1 °F 41.5 °F 30.3 in West 6.3 mph 6.3 mph 98 % 0 in
08:37 42.3 °F 41.7 °F 30.3 in West 4.9 mph 6.3 mph 98 % 0 in
08:42 42.4 °F 41.9 °F 30.3 in West 4 mph 6.3 mph 98 % 0 in
08:47 43 °F 42.4 °F 30.3 in West 4 mph 6 mph 98 % 0 in
08:52 43.3 °F 42.8 °F 30.3 in WNW 6.5 mph 6.5 mph 98 % 0 in
08:57 43.9 °F 43.3 °F 30.3 in WNW 4 mph 6.5 mph 98 % 0 in
09:02 44.2 °F 43.5 °F 30.3 in West 7.2 mph 7.2 mph 98 % 0 in
09:07 44.2 °F 43.9 °F 30.3 in West 5.4 mph 7.4 mph 98 % 0 in
09:12 44.8 °F 44.2 °F 30.3 in West 6 mph 7.4 mph 98 % 0 in
09:17 45.1 °F 44.8 °F 30.3 in WSW 4.9 mph 6.5 mph 98 % 0 in
09:22 45.3 °F 45 °F 30.3 in West 6.3 mph 6.5 mph 98 % 0 in
09:27 45.9 °F 45.3 °F 30.3 in West 6.3 mph 7.4 mph 98 % 0 in
09:32 46.6 °F 45.9 °F 30.3 in WSW 6.3 mph 9.2 mph 98 % 0 in
09:37 46.8 °F 46.2 °F 30.3 in WSW 8.5 mph 9.2 mph 98 % 0 in
09:43 46.9 °F 46.6 °F 30.3 in WSW 5.8 mph 10.1 mph 98 % 0 in
09:48 47.1 °F 46.6 °F 30.3 in West 8.1 mph 10.1 mph 98 % 0 in
09:53 47.3 °F 46.8 °F 30.3 in WSW 8.5 mph 11 mph 98 % 0 in
09:58 47.5 °F 46.9 °F 30.3 in West 10.5 mph 12.8 mph 98 % 0 in
10:03 47.8 °F 47.3 °F 30.3 in West 9.8 mph 12.8 mph 98 % 0 in
10:08 48.2 °F 47.7 °F 30.3 in West 8.1 mph 10.5 mph 98 % 0 in
10:13 48.4 °F 47.8 °F 30.3 in SW 3.6 mph 10.7 mph 98 % 0 in
10:18 48.9 °F 48.4 °F 30.3 in West 4.3 mph 10.7 mph 98 % 0 in
10:23 49.3 °F 48.7 °F 30.3 in West 7.6 mph 10.7 mph 98 % 0 in
10:28 49.6 °F 48.7 °F 30.3 in West 5.4 mph 10.7 mph 97 % 0 in
10:33 50.2 °F 49.5 °F 30.3 in WNW 5.4 mph 13.2 mph 97 % 0 in
10:38 50.2 °F 49.5 °F 30.3 in West 8.1 mph 13.2 mph 97 % 0 in
10:43 50.4 °F 49.3 °F 30.3 in West 5.4 mph 10.1 mph 96 % 0 in
10:48 50.7 °F 49.6 °F 30.3 in NNW 6.5 mph 9.8 mph 96 % 0 in
10:53 51.1 °F 50 °F 30.3 in West 10.1 mph 10.1 mph 96 % 0 in
10:58 51.1 °F 50 °F 30.3 in West 5.6 mph 10.7 mph 96 % 0 in
11:03 51.1 °F 49.6 °F 30.3 in West 6.5 mph 10.7 mph 95 % 0 in
11:08 50.9 °F 49.3 °F 30.3 in West 5.8 mph 10.1 mph 94 % 0 in
11:13 51.1 °F 49.5 °F 30.3 in West 3.4 mph 8.7 mph 94 % 0 in
11:18 51.3 °F 49.3 °F 30.3 in WNW 7.4 mph 10.5 mph 93 % 0 in
11:23 51.3 °F 48.9 °F 30.3 in West 2.9 mph 10.5 mph 92 % 0 in
11:28 51.4 °F 49.3 °F 30.3 in West 6.9 mph 8.5 mph 92 % 0 in
11:33 51.8 °F 49.3 °F 30.3 in NNW 3.8 mph 8.7 mph 91 % 0 in
11:38 52 °F 49.5 °F 30.3 in NNE 3.8 mph 8.7 mph 91 % 0 in
11:43 52.5 °F 49.8 °F 30.3 in WSW 6.9 mph 6.9 mph 91 % 0 in
11:48 52.5 °F 49.5 °F 30.3 in WSW 2.2 mph 6.9 mph 89 % 0 in
11:53 52.5 °F 48.6 °F 30.3 in West 6.5 mph 6.9 mph 86 % 0 in
11:58 52.3 °F 47.7 °F 30.3 in NNW 6.5 mph 7.8 mph 84 % 0 in
12:03 52.2 °F 48 °F 30.3 in WSW 2.9 mph 7.8 mph 86 % 0 in
12:08 52.5 °F 48.9 °F 30.3 in WNW 4.9 mph 6.5 mph 87 % 0 in
12:13 52.2 °F 47.7 °F 30.3 in WNW 6 mph 7.2 mph 85 % 0 in
12:18 52 °F 47.1 °F 30.3 in WNW 6 mph 7.2 mph 84 % 0 in
12:23 52 °F 47.1 °F 30.3 in West 4 mph 7.6 mph 84 % 0 in
12:28 52 °F 47.1 °F 30.3 in NNE 1.6 mph 7.6 mph 84 % 0 in
12:33 52 °F 47.7 °F 30.3 in North 4.7 mph 7.6 mph 85 % 0 in
12:38 51.8 °F 46.8 °F 30.3 in NNW 4 mph 7.6 mph 83 % 0 in
12:43 52.2 °F 47.5 °F 30.3 in West 1.1 mph 7.6 mph 84 % 0 in
12:48 52 °F 47.1 °F 30.3 in West 3.8 mph 7.4 mph 84 % 0 in
12:53 52.3 °F 47.7 °F 30.3 in West 5.8 mph 7.8 mph 84 % 0 in
12:58 52.9 °F 47.8 °F 30.3 in WNW 4.9 mph 10.1 mph 83 % 0 in
13:03 53.2 °F 48.6 °F 30.3 in NNE 5.6 mph 10.1 mph 84 % 0 in
13:08 53.2 °F 48 °F 30.3 in SW 3.1 mph 8.9 mph 82 % 0 in
13:13 53.2 °F 47.8 °F 30.3 in West 6 mph 8.9 mph 82 % 0 in
13:18 53.2 °F 47.5 °F 30.3 in North 3.8 mph 6.5 mph 81 % 0 in
13:23 53.2 °F 47.5 °F 30.3 in NNW 2.5 mph 6.5 mph 81 % 0 in
13:28 52.9 °F 46.8 °F 30.3 in West 6 mph 6 mph 80 % 0 in
13:33 53.2 °F 47.3 °F 30.3 in NW 6 mph 6.5 mph 80 % 0 in
13:38 53.2 °F 47.3 °F 30.3 in WNW 6 mph 8.1 mph 80 % 0 in
13:43 53.4 °F 47.5 °F 30.3 in NW 2 mph 8.1 mph 80 % 0 in
13:48 54 °F 48.2 °F 30.3 in North 3.1 mph 6.3 mph 81 % 0 in
13:53 54 °F 48.2 °F 30.3 in WNW 1.6 mph 6.3 mph 81 % 0 in
13:58 53.4 °F 47.1 °F 30.3 in NNW 3.6 mph 7.4 mph 79 % 0 in
14:03 53.2 °F 47.3 °F 30.3 in WSW 4.3 mph 7.4 mph 80 % 0 in
14:08 53.4 °F 47.5 °F 30.3 in West 5.8 mph 6.5 mph 80 % 0 in
14:13 53.2 °F 47.3 °F 30.3 in NNW 5.6 mph 7.8 mph 80 % 0 in
14:19 53.2 °F 47.1 °F 30.3 in NNW 4 mph 7.8 mph 80 % 0 in
14:24 53.2 °F 47.1 °F 30.3 in South 2.5 mph 6.5 mph 80 % 0 in
14:29 53.2 °F 47.1 °F 30.3 in ENE 4.3 mph 6 mph 80 % 0 in
14:34 53.1 °F 46.9 °F 30.3 in WNW 3.4 mph 5.8 mph 80 % 0 in
14:39 53.1 °F 46.8 °F 30.4 in NNE 2.5 mph 5.8 mph 79 % 0 in
14:44 53.1 °F 46.9 °F 30.4 in WNW 1.1 mph 5.8 mph 80 % 0 in
14:49 53.2 °F 47.1 °F 30.4 in NW 2.7 mph 6 mph 80 % 0 in
14:54 53.1 °F 46.9 °F 30.3 in WNW 3.1 mph 8.5 mph 80 % 0 in
14:59 53.1 °F 46.9 °F 30.3 in NNW 4.3 mph 8.5 mph 80 % 0 in
15:04 52.5 °F 46.2 °F 30.3 in NNE 2.9 mph 5.6 mph 79 % 0 in
15:09 52.5 °F 46.6 °F 30.3 in North 2.7 mph 7.2 mph 80 % 0 in
15:14 54 °F 48.2 °F 30.3 in NNW 2.5 mph 7.2 mph 81 % 0 in
15:19 54 °F 47.7 °F 30.3 in North 3.4 mph 8.5 mph 79 % 0 in
15:24 53.4 °F 47.1 °F 30.3 in NNW 2 mph 8.5 mph 79 % 0 in
15:29 54 °F 47.7 °F 30.3 in WNW 3.4 mph 6 mph 79 % 0 in
15:34 55 °F 48.4 °F 30.3 in West 5.4 mph 5.6 mph 78 % 0 in
15:39 55.6 °F 48 °F 30.3 in NNW 3.4 mph 8.1 mph 76 % 0 in
15:44 54.9 °F 47.1 °F 30.3 in West 5.6 mph 8.1 mph 75 % 0 in
15:49 54 °F 45.9 °F 30.3 in WNW 3.4 mph 7.6 mph 74 % 0 in
15:54 53.8 °F 46 °F 30.3 in North 4.7 mph 6.5 mph 75 % 0 in
15:59 53.2 °F 46 °F 30.3 in West 1.3 mph 4.9 mph 76 % 0 in
16:04 53.2 °F 46 °F 30.3 in NNW 1.6 mph 4.9 mph 77 % 0 in
16:09 53.1 °F 46.2 °F 30.3 in NNW 3.1 mph 4.9 mph 78 % 0 in
16:14 52.9 °F 46 °F 30.3 in North 3.6 mph 5.4 mph 78 % 0 in
16:19 52.3 °F 46 °F 30.3 in North 2.9 mph 5.8 mph 79 % 0 in
16:24 52.2 °F 45.9 °F 30.3 in NE 3.8 mph 5.8 mph 79 % 0 in
16:29 52 °F 46 °F 30.3 in North 2.9 mph 4.9 mph 80 % 0 in
16:34 51.8 °F 45.9 °F 30.3 in Calm   4.9 mph 80 % 0 in
16:39 51.8 °F 45.9 °F 30.3 in North 3.1 mph 4 mph 80 % 0 in
16:44 51.6 °F 45.9 °F 30.3 in North 2.7 mph 6 mph 81 % 0 in
16:49 51.3 °F 45.7 °F 30.3 in North 3.8 mph 6 mph 81 % 0 in
16:54 51.3 °F 45.7 °F 30.3 in NNE 3.8 mph 5.4 mph 81 % 0 in
16:59 50.9 °F 45.7 °F 30.3 in North 3.1 mph 5.4 mph 82 % 0 in
17:04 50.7 °F 45.3 °F 30.3 in North 2.5 mph 4.7 mph 82 % 0 in
17:09 50.5 °F 45.1 °F 30.3 in North 1.6 mph 4.3 mph 82 % 0 in
17:14 50.4 °F 45.3 °F 30.3 in Calm   4.3 mph 83 % 0 in
17:19 50.2 °F 45.1 °F 30.3 in NNE 3.1 mph 3.1 mph 83 % 0 in
17:24 50.2 °F 45.1 °F 30.3 in WNW 3.4 mph 4 mph 83 % 0 in
17:29 50 °F 45.3 °F 30.3 in North 2.2 mph 4 mph 84 % 0 in
17:35 50 °F 45.3 °F 30.3 in NNW 2 mph 3.6 mph 84 % 0 in
17:40 49.8 °F 45.1 °F 30.3 in NNW 2.9 mph 4 mph 84 % 0 in
17:45 49.8 °F 45.1 °F 30.3 in NNE 2 mph 4 mph 84 % 0 in
17:50 49.6 °F 45 °F 30.3 in NNE 2 mph 4.3 mph 84 % 0 in
17:55 49.5 °F 45.1 °F 30.3 in North 4.7 mph 4.7 mph 85 % 0 in
18:00 49.5 °F 45.1 °F 30.3 in NNE 1.3 mph 4.7 mph 85 % 0 in
18:05 49.3 °F 45 °F 30.3 in North 2.7 mph 3.6 mph 85 % 0 in
18:10 49.1 °F 45.1 °F 30.3 in North 2.7 mph 3.6 mph 86 % 0 in
18:15 48.9 °F 45 °F 30.3 in NE 3.4 mph 3.4 mph 86 % 0 in
18:20 48.7 °F 44.8 °F 30.3 in NE 1.3 mph 3.4 mph 86 % 0 in
18:25 48.7 °F 45.1 °F 30.3 in NNE 1.3 mph 3.1 mph 87 % 0 in
18:30 48.6 °F 45 °F 30.3 in NE 2.2 mph 3.1 mph 87 % 0 in
18:36 48.4 °F 45 °F 30.3 in NE 1.3 mph 2.5 mph 88 % 0 in
18:41 48.2 °F 44.8 °F 30.3 in NE 1.6 mph 2.7 mph 88 % 0 in
18:46 48 °F 45 °F 30.3 in NNE 1.3 mph 2.7 mph 89 % 0 in
18:51 48 °F 45 °F 30.3 in NE 1.3 mph 2.7 mph 89 % 0 in
18:57 47.8 °F 44.8 °F 30.3 in Calm   2.5 mph 89 % 0 in
19:02 47.8 °F 44.8 °F 30.3 in NNE 0.9 mph 2.2 mph 89 % 0 in
19:07 47.7 °F 45 °F 30.3 in NNE 1.3 mph 1.6 mph 90 % 0 in
19:12 47.5 °F 44.8 °F 30.3 in NNE 1.1 mph 1.6 mph 90 % 0 in
19:17 47.5 °F 44.8 °F 30.3 in Calm   1.3 mph 90 % 0 in
19:22 47.3 °F 45 °F 30.3 in Calm   1.3 mph 91 % 0 in
19:27 47.1 °F 44.8 °F 30.3 in Calm     91 % 0 in
19:32 46.9 °F 44.4 °F 30.3 in Calm     91 % 0 in
19:37 46.8 °F 44.2 °F 30.3 in NNE 1.6 mph 2.2 mph 91 % 0 in
19:42 46.8 °F 44.2 °F 30.3 in NNE 1.6 mph 2.5 mph 91 % 0 in
19:47 46.8 °F 44.6 °F 30.3 in Calm   2.5 mph 92 % 0 in
19:52 46.8 °F 44.6 °F 30.3 in NNW 1.1 mph 2.7 mph 92 % 0 in
19:57 46.8 °F 44.6 °F 30.3 in WNW 1.6 mph 2.7 mph 92 % 0 in
20:02 46.8 °F 45 °F 30.3 in Calm   1.6 mph 93 % 0 in
20:07 46.8 °F 45 °F 30.3 in Calm   1.1 mph 93 % 0 in
20:12 46.6 °F 44.8 °F 30.3 in Calm     93 % 0 in
20:17 46.6 °F 44.8 °F 30.3 in NE 0.9 mph 2.9 mph 93 % 0 in
20:22 46.6 °F 44.8 °F 30.3 in WNW 1.6 mph 2.9 mph 93 % 0 in
20:27 46.6 °F 44.6 °F 30.3 in WNW 1.6 mph 2.2 mph 93 % 0 in
20:32 46.6 °F 44.6 °F 30.3 in Calm   2.2 mph 93 % 0 in
20:37 46.6 °F 44.6 °F 30.3 in Calm   2 mph 93 % 0 in
20:42 46.2 °F 44.4 °F 30.3 in Calm     93 % 0 in
20:47 46.2 °F 44.8 °F 30.3 in Calm     94 % 0 in
20:52 46.2 °F 44.8 °F 30.3 in Calm     94 % 0 in
20:57 46 °F 44.4 °F 30.3 in Calm     94 % 0 in
21:02 46 °F 44.4 °F 30.3 in Calm     94 % 0 in
21:07 45.9 °F 44.2 °F 30.3 in Calm     94 % 0 in
21:12 45.9 °F 44.2 °F 30.3 in Calm     94 % 0 in
21:17 45.9 °F 44.6 °F 30.3 in Calm     95 % 0 in
21:22 45.9 °F 44.4 °F 30.3 in Calm     95 % 0 in
21:28 45.9 °F 44.4 °F 30.3 in ENE 1.3 mph 2 mph 95 % 0 in
21:33 45.9 °F 44.4 °F 30.3 in Calm   2 mph 95 % 0 in
21:38 45.9 °F 44.4 °F 30.3 in Calm   1.6 mph 95 % 0 in
21:43 45.9 °F 44.4 °F 30.3 in Calm     95 % 0 in
21:48 45.9 °F 44.4 °F 30.3 in Calm     95 % 0 in
21:53 45.9 °F 44.8 °F 30.3 in Calm     96 % 0 in
21:58 45.7 °F 44.4 °F 30.3 in Calm     96 % 0 in
22:03 45.7 °F 44.4 °F 30.3 in Calm     96 % 0 in
22:08 45.7 °F 44.4 °F 30.3 in Calm     96 % 0 in
22:13 45.7 °F 44.4 °F 30.3 in Calm     96 % 0 in
22:18 45.3 °F 44.2 °F 30.3 in Calm     96 % 0 in
22:23 45.3 °F 44.2 °F 30.3 in Calm   1.6 mph 96 % 0 in
22:28 45.1 °F 44.2 °F 30.3 in Calm   1.6 mph 96 % 0 in
22:33 45.1 °F 44.1 °F 30.3 in Calm     96 % 0 in
22:38 45.1 °F 44.1 °F 30.3 in Calm     96 % 0 in
22:43 45 °F 43.9 °F 30.3 in Calm     96 % 0 in
22:48 44.4 °F 43.5 °F 30.3 in Calm     96 % 0 in
22:53 44.2 °F 43.3 °F 30.3 in Calm     96 % 0 in
22:58 44.2 °F 43.2 °F 30.3 in Calm   1.1 mph 96 % 0 in
23:03 44.1 °F 43 °F 30.3 in Calm   1.1 mph 96 % 0 in
23:08 43.9 °F 42.8 °F 30.3 in Calm     96 % 0 in
23:13 43.5 °F 42.4 °F 30.3 in South 2 mph 2 mph 96 % 0 in
23:18 43.3 °F 42.3 °F 30.3 in South 0.9 mph 2 mph 96 % 0 in
23:23 43.3 °F 42.3 °F 30.3 in South 1.3 mph 2 mph 96 % 0 in
23:28 43 °F 41.9 °F 30.3 in South 1.1 mph 2.2 mph 96 % 0 in
23:33 42.8 °F 41.7 °F 30.3 in South 2.2 mph 2.2 mph 96 % 0 in
23:38 43 °F 41.9 °F 30.3 in WSW 2.7 mph 2.7 mph 96 % 0 in
23:43 43.3 °F 42.4 °F 30.3 in Calm   3.1 mph 97 % 0 in
23:44 43.3 °F 42.4 °F 30.3 in Calm   3.1 mph 97 % 0 in
23:49 43.2 °F 42.3 °F 30.3 in Calm   3.1 mph 97 % 0 in
23:54 43 °F 42.1 °F 30.3 in Calm   1.6 mph 97 % 0 in
23:59 42.8 °F 42.1 °F 30.3 in Calm   1.6 mph 97 % 0 in
Le Gheer Warneton
Courtoisie de Weather Underground - 2.25 mb

Mise a jour : 18/12/2017 23:28:11
Généré par Cumulus 1.9.4 (1099)